Portada
METAR-TAF:

METAR-TAF

Aeroports :

Hargeisa, Somàlia

latitud: 09-30N, longitud: 044-05E, altitud: 1326 m

Observació

L'informe es va fer fa 12 hores i 13 minuts, a les 14:00 UTC
Vent 8 kt del Nord-Est
Temperatura 22°C
Humitat 78%
Pressió 1017 hPa
Visibilitat 10 km o més
Núvols disperses a una alçada de 3000 ft

METAR: HCMH 121400Z 05008KT 9999 SCT030 22/18 Q1017

Hora: 05:13 (02:13 UTC)


TAF: manca

Observacions i pronòstics meteorològics de més de 4000 aeroports (METAR i TAF).

Les estacions disponibles són els punts grocs i vermells al mapa.

Posi el ratolí al punt desitjat per veure el nom de l'estació.

Feu clic per veure les observacions i els pronòstics meteorològics.

Per canviar el mapa: feu clic els botons verds amb una creu de color negre per apropar; al botó verd amb un guió per allunyar la imatge; o en les fletxes verdes per a mapes adjacents.


METAR-TAF: